PTAAM KEYW-KAPF

Flight info

Callsign PTAAM
Flight time 0h 23m
Altitude 21000
Route CARNU KARTR
Aircraft C750/M-SBDE3FGHRWXY/S

Departure

Time 2026-04-29 14:40
Airport Key West International Airport (KEYW)

Arrival

Time 2026-04-29 15:04
Airport Naples Municipal Airport (KAPF)
Time Latitude Longitude Altitude Speed Heading
2026-04-29 14:34 24.55469 -81.75493 8 ft 0 kts 223°
2026-04-29 14:35 24.55466 -81.75497 8 ft 1 kts 231°
2026-04-29 14:36 24.55482 -81.75517 8 ft 6 kts 346°
2026-04-29 14:36 24.55529 -81.75538 8 ft 8 kts 284°
2026-04-29 14:36 24.55529 -81.75615 8 ft 12 kts 268°
2026-04-29 14:36 24.55528 -81.75720 8 ft 14 kts 270°
2026-04-29 14:37 24.55527 -81.75822 8 ft 15 kts 270°
2026-04-29 14:37 24.55526 -81.75948 8 ft 17 kts 269°
2026-04-29 14:37 24.55524 -81.76083 8 ft 17 kts 270°
2026-04-29 14:37 24.55523 -81.76218 8 ft 17 kts 269°
2026-04-29 14:38 24.55522 -81.76355 8 ft 18 kts 269°
2026-04-29 14:38 24.55521 -81.76495 8 ft 18 kts 269°
2026-04-29 14:38 24.55521 -81.76618 8 ft 11 kts 283°
2026-04-29 14:38 24.55583 -81.76658 8 ft 11 kts
2026-04-29 14:39 24.55606 -81.76635 8 ft 0 kts 85°
2026-04-29 14:39 24.55606 -81.76634 8 ft 0 kts 85°
2026-04-29 14:39 24.55607 -81.76621 8 ft 14 kts 87°
2026-04-29 14:40 24.55612 -81.76059 8 ft 131 kts 89°
2026-04-29 14:40 24.55609 -81.74822 545 ft 185 kts 91°
2026-04-29 14:40 24.55624 -81.73332 1818 ft 208 kts 86°
2026-04-29 14:40 24.55894 -81.71856 3331 ft 216 kts 64°
2026-04-29 14:41 24.56974 -81.70607 4459 ft 244 kts 36°
2026-04-29 14:41 24.58385 -81.69518 5883 ft 253 kts 35°
2026-04-29 14:41 24.59798 -81.68420 7185 ft 261 kts 32°
2026-04-29 14:41 24.61384 -81.67423 8419 ft 270 kts 32°
2026-04-29 14:42 24.62996 -81.66355 9760 ft 273 kts 32°
2026-04-29 14:42 24.64617 -81.65278 10906 ft 281 kts 31°
2026-04-29 14:42 24.66324 -81.64146 11834 ft 297 kts 31°
2026-04-29 14:42 24.68113 -81.62962 12815 ft 308 kts 30°
2026-04-29 14:43 24.69970 -81.61734 13892 ft 315 kts 30°
2026-04-29 14:43 24.71832 -81.60500 14992 ft 320 kts 30°
2026-04-29 14:43 24.73777 -81.59215 16039 ft 325 kts 30°
2026-04-29 14:43 24.75736 -81.57914 17102 ft 330 kts 29°
2026-04-29 14:44 24.77712 -81.56605 18057 ft 335 kts 29°
2026-04-29 14:44 24.79711 -81.55279 19016 ft 339 kts 29°
2026-04-29 14:44 24.81761 -81.53920 19887 ft 345 kts 28°
2026-04-29 14:44 24.83828 -81.52548 20723 ft 351 kts 29°
2026-04-29 14:45 24.85973 -81.51125 21032 ft 372 kts 28°
2026-04-29 14:45 24.88295 -81.49582 21083 ft 398 kts 29°
2026-04-29 14:45 24.90727 -81.47968 21091 ft 422 kts 29°
2026-04-29 14:45 24.93330 -81.46233 21089 ft 444 kts 29°
2026-04-29 14:46 24.96024 -81.44443 21084 ft 464 kts 29°
2026-04-29 14:46 24.98711 -81.42654 21043 ft 440 kts 29°
2026-04-29 14:46 25.01330 -81.40912 21060 ft 442 kts 29°
2026-04-29 14:46 25.03998 -81.39133 21074 ft 454 kts 29°
2026-04-29 14:47 25.06718 -81.37320 21075 ft 463 kts 29°
2026-04-29 14:47 25.09454 -81.35493 21055 ft 447 kts 29°
2026-04-29 14:47 25.12240 -81.34087 21025 ft 431 kts 13°
2026-04-29 14:47 25.15172 -81.33939 21059 ft 419 kts 353°
2026-04-29 14:48 25.17947 -81.34869 21076 ft 414 kts 338°
2026-04-29 14:48 25.20601 -81.36137 21071 ft 412 kts 337°
2026-04-29 14:48 25.23255 -81.37488 21068 ft 410 kts 336°
2026-04-29 14:48 25.25824 -81.38817 21069 ft 408 kts 336°
2026-04-29 14:49 25.28407 -81.40166 21068 ft 407 kts 335°
2026-04-29 14:49 25.31004 -81.41523 21069 ft 406 kts 335°
2026-04-29 14:49 25.33594 -81.42882 21070 ft 405 kts 335°
2026-04-29 14:49 25.36133 -81.44211 21070 ft 404 kts 335°
2026-04-29 14:50 25.38680 -81.45545 21066 ft 403 kts 335°
2026-04-29 14:50 25.41215 -81.46873 21068 ft 403 kts 335°
2026-04-29 14:50 25.43755 -81.48206 21069 ft 402 kts 335°
2026-04-29 14:50 25.46278 -81.49532 21070 ft 394 kts 335°
2026-04-29 14:51 25.48676 -81.50792 20295 ft 379 kts 335°
2026-04-29 14:51 25.50951 -81.52190 19467 ft 365 kts 328°
2026-04-29 14:51 25.53039 -81.53678 18713 ft 352 kts 329°
2026-04-29 14:51 25.55054 -81.55082 18029 ft 340 kts 329°
2026-04-29 14:52 25.57027 -81.56464 17384 ft 327 kts 329°
2026-04-29 14:52 25.58903 -81.57775 16793 ft 316 kts 330°
2026-04-29 14:52 25.60748 -81.59066 16223 ft 306 kts 330°
2026-04-29 14:52 25.62522 -81.60307 15681 ft 297 kts 330°
2026-04-29 14:53 25.64236 -81.61505 15157 ft 292 kts 330°
2026-04-29 14:53 25.65948 -81.62704 14638 ft 291 kts 330°
2026-04-29 14:53 25.67658 -81.63899 14102 ft 290 kts 330°
2026-04-29 14:53 25.69374 -81.65105 13557 ft 288 kts 330°
2026-04-29 14:54 25.71063 -81.66287 13009 ft 287 kts 330°
2026-04-29 14:54 25.72727 -81.67453 12456 ft 287 kts 330°
2026-04-29 14:54 25.74424 -81.68643 11882 ft 287 kts 330°
2026-04-29 14:54 25.76109 -81.69826 11298 ft 288 kts 330°
2026-04-29 14:55 25.77795 -81.71009 10692 ft 289 kts 330°
2026-04-29 14:55 25.79503 -81.72205 10147 ft 287 kts 330°
2026-04-29 14:55 25.81131 -81.73353 10097 ft 268 kts 330°
2026-04-29 14:55 25.82653 -81.74423 10004 ft 253 kts 330°
2026-04-29 14:56 25.84141 -81.75465 9640 ft 259 kts 330°
2026-04-29 14:56 25.85687 -81.76548 9064 ft 268 kts 330°
2026-04-29 14:56 25.87267 -81.77658 8440 ft 272 kts 329°
2026-04-29 14:56 25.88884 -81.78795 7781 ft 276 kts 329°
2026-04-29 14:57 25.90510 -81.79940 7115 ft 278 kts 329°
2026-04-29 14:57 25.92142 -81.81087 6437 ft 278 kts 329°
2026-04-29 14:57 25.93729 -81.82206 5868 ft 260 kts 329°
2026-04-29 14:57 25.95213 -81.83253 5370 ft 240 kts 329°
2026-04-29 14:58 25.96569 -81.84211 5288 ft 224 kts 329°
2026-04-29 14:58 25.97784 -81.85241 5191 ft 214 kts 317°
2026-04-29 14:58 25.98797 -81.86421 5124 ft 208 kts 315°
2026-04-29 14:58 25.99802 -81.87563 5066 ft 207 kts 315°
2026-04-29 14:59 26.00791 -81.88696 4939 ft 207 kts 316°
2026-04-29 14:59 26.01842 -81.89800 4679 ft 207 kts 328°
2026-04-29 14:59 26.03207 -81.90124 4326 ft 202 kts 11°
2026-04-29 14:59 26.04404 -81.89383 3811 ft 201 kts 46°
2026-04-29 15:00 26.05352 -81.88268 3335 ft 192 kts 45°
2026-04-29 15:00 26.06246 -81.87292 2938 ft 168 kts 45°
2026-04-29 15:00 26.07048 -81.86423 2570 ft 155 kts 45°
2026-04-29 15:00 26.07793 -81.85618 2254 ft 146 kts 45°
2026-04-29 15:01 26.08502 -81.84855 1978 ft 137 kts 45°
2026-04-29 15:01 26.09164 -81.84141 1740 ft 130 kts 45°
2026-04-29 15:01 26.09817 -81.83433 1541 ft 130 kts 46°
2026-04-29 15:01 26.10464 -81.82699 1347 ft 132 kts 46°
2026-04-29 15:02 26.11120 -81.81996 1152 ft 133 kts 45°
2026-04-29 15:02 26.11790 -81.81272 947 ft 134 kts 46°
2026-04-29 15:02 26.12451 -81.80566 745 ft 133 kts 45°
2026-04-29 15:02 26.13128 -81.79838 538 ft 133 kts 46°
2026-04-29 15:03 26.13807 -81.79111 333 ft 132 kts 46°
2026-04-29 15:03 26.14217 -81.78674 213 ft 132 kts 45°
2026-04-29 15:03 26.14813 -81.78044 35 ft 127 kts 46°
2026-04-29 15:03 26.15409 -81.77399 9 ft 103 kts 43°
2026-04-29 15:04 26.15672 -81.77113 9 ft 16 kts 44°
2026-04-29 15:04 26.15687 -81.77096 9 ft 0 kts 52°
2026-04-29 15:04 26.15689 -81.77092 9 ft 1 kts 52°
2026-04-29 15:04 26.15692 -81.77088 9 ft 0 kts 59°
2026-04-29 15:05 26.15678 -81.77051 9 ft 8 kts 133°
2026-04-29 15:05 26.15655 -81.77024 9 ft 2 kts 133°
2026-04-29 15:05 26.15624 -81.77010 9 ft 6 kts 178°
2026-04-29 15:05 26.15577 -81.76978 9 ft 9 kts 134°
2026-04-29 15:06 26.15566 -81.76965 9 ft 0 kts 134°